Location: Austin, TX
(30.3000°N, 97.7500°W)
Time: 18:48:50
(UTC-06:00)

Daily predictions for brighter satellites

Satellite Brightness Start Highest point End
(mag) Time Altitude Azimuth Time Altitude Azimuth Time Altitude Azimuth
Cosmos 44 Rocket 3.8 18:08:50 10° S 18:13:43 45° ESE 18:18:35 10° NE
GMS 1 Rocket B 4.4 18:10:15 10° W 18:14:26 76° S 18:18:21 10° E
SMAP 3.2 18:10:17 10° SSE 18:14:56 86° W 18:19:36 10° NNW
SPOT 3 Rocket 3.6 18:12:01 10° SSE 18:17:09 86° ENE 18:22:19 10° NNW
SKYMED 2 3.8 18:13:17 10° NNE 18:17:32 53° E 18:21:45 10° S
Cosmos 1726 3.8 18:18:10 10° NE 18:20:15 14° ENE 18:22:20 10° ESE
Centaur AC-72 4.1 18:16:40 10° SW 18:22:04 32° SSE 18:28:41 10° ESE
COSMOS 2441 4.4 18:17:19 10° SSE 18:22:09 67° ENE 18:26:59 10° N
Thor Agena Rocket 4.4 18:19:54 10° N 18:25:00 55° WNW 18:30:02 10° SSW
Cosmos 1500 Rocket 3.7 18:21:21 10° SSE 18:25:30 49° E 18:29:41 10° NNE
Cosmos 2151 3.9 18:22:04 10° SSE 18:25:40 28° E 18:29:16 10° NNE
Cosmos 2150 Rocket 3.9 18:21:20 10° NNW 18:26:33 83° ENE 18:31:41 10° SSE
Cosmos 2333 4.5 18:21:43 10° SSW 18:27:19 73° WNW 18:32:55 10° NNE
IDEFIX/ARIANE 42P 3.5 18:23:59 10° S 18:29:01 54° W 18:34:08 10° NNW
Cosmos 540 Rocket 4.1 18:24:48 10° SSE 18:29:29 35° E 18:34:10 10° NE
Cosmos 2263 Rocket 4.0 18:24:44 10° NW 18:29:53 37° WSW 18:35:00 10° S
Cosmos 1898 Rocket 3.9 18:26:19 10° NNW 18:31:38 70° WSW 18:36:54 10° S
Meteor 1-28 Rocket 3.4 18:28:31 10° NNE 18:32:07 49° E 18:35:43 10° S
Atlas Centaur 2 1.7 18:29:06 10° W 18:34:09 74° SSW 18:38:12 10° ESE
Cosmos 1151 Rocket 3.9 18:30:43 10° NNE 18:34:21 26° E 18:37:57 10° SE
USA 215 3.8 18:28:49 10° ESE 18:34:40 36° NE 18:40:32 10° NNW
Cosmos 1844 Rocket 3.0 18:30:15 10° N 18:35:35 42° ENE 18:40:52 10° SE
BREEZE-M DEB (TANK) 3.9 18:32:53 10° WSW 18:36:08 22° NW 18:38:07 10° NNE
OAO 3 Rocket 3.4 18:31:31 10° WNW 18:36:20 57° N 18:40:41 12° E
OTV 4 2.4 18:36:29 10° NW 18:38:34 18° N 18:40:16 12° NE
Cosmos 1980 3.9 18:34:03 10° S 18:39:33 54° ESE 18:45:05 10° NNE
SEDSat Delta rocket 3.4 18:34:42 10° W 18:40:18 83° N 18:44:40 13° E
GPS 2-04 Rocket1 2.9 18:36:35 10° WNW 18:40:55 89° SW 18:45:11 10° ESE
Resurs 01 Rocket4.218:45:27NNE18:45:27NNE18:36:46ESE
MONITOR-E 4.5 18:39:17 10° S 18:42:26 73° W 18:45:36 10° NNW
H-2A ROCKET BODY 4.1 17:59:31 10° WSW 18:43:04 72° S 18:49:07 14° E
Cosmos 990 Rocket 4.0 18:41:27 10° NNW 18:46:44 86° ENE 18:51:58 10° SSE
Cosmos 2333 Rocket 2.1 18:41:52 10° SSW 18:47:30 80° ESE 18:53:09 10° NNE
NOSS 0 Rocket 3.9 18:45:18 10° SSW 18:51:30 80° ESE 18:57:44 10° NNE
Cosmos 1340 Rocket 3.6 18:48:06 10° SSE 18:51:35 29° E 18:54:03 16° NE
Cosmos 2228 Rocket 4.0 18:59:48 10° NNW 19:04:05 51° W 19:08:22 10° SSW
SL-14 R/B 3.2 19:01:29 10° S 19:05:21 84° W 19:09:17 10° N
COSMO-SKYMED 1 4.1 19:01:28 10° N 19:05:27 36° WNW 19:09:25 10° SW
Aureole 2 Rocket 2.8 19:02:24 10° S 19:05:37 42° ESE 19:06:47 31° NE
Cosmos 2219 Rocket 3.1 19:03:33 10° SW 19:08:59 48° WNW 19:14:26 10° N
Cosmos 2279 Rocket 4.0 19:05:52 10° N 19:11:58 56° E 19:18:02 10° SSE
Cosmos 2084 4.5 19:09:20 10° SW 19:13:03 38° WNW 19:16:06 13° N
Cosmos 1666 Rocket 4.3 19:12:06 10° SSE 19:15:27 31° ESE 19:15:27 31° ESE
Cosmos 2278 Rocket 2.6 19:11:31 10° N 19:16:50 40° ENE 19:22:06 10° SE
METEOR-M 4.0 19:12:30 10° SSE 19:17:49 75° ENE 19:23:10 10° N
Intelsat 5-1 Rocket 3.0 19:17:43 10° WSW 19:20:33 35° S 19:22:50 23° ESE
Cosmos 2180 Rocket 4.4 19:19:34 10° N 19:25:38 60° E 19:31:45 10° SSE
Helios 1B rocket 3.9 19:27:50 23° SE 19:27:50 23° SE 19:29:46 10° SSE
Nadezhda 4 Rocket 4.1 19:20:39 10° SSE 19:26:35 50° E 19:31:42 15° NNE
Cosmos 1844 3.7 19:20:56 10° NNW 19:26:44 89° WSW 19:32:31 10° SSE
ALOS 2.4 19:24:29 10° SSE 19:28:55 46° ENE 19:33:23 10° N
Meteor 2-10 3.8 19:24:49 10° N 19:29:55 72° E 19:35:07 10° SSE
FREGAT/IRIS 2.7 19:27:14 10° S 19:30:16 74° WSW 19:30:18 74° W
Cosmos 1626 2.9 19:27:19 10° S 19:29:47 36° SSE 19:29:47 36° SSE
Abrixas 3.1 19:28:07 10° WSW 19:30:36 52° W 19:30:36 52° W
Cosmos 1461 3.4 19:27:40 10° S 19:31:17 42° SE 19:31:17 42° SE
Cosmos 44 4.4 19:30:45 10° SW 19:35:51 47° WNW 19:39:29 18° N
Hubble Space Telescope 1.5 19:32:20 10° W 19:36:18 45° SSW 19:37:08 39° SSE
Cosmos 2237 Rocket 3.1 19:31:18 10° SW 19:36:41 47° WNW 19:42:07 10° N
Abrixas rocket 2.8 19:36:07 10° NW 19:38:58 56° W 19:38:58 56° W
SL-16 R/B 2.1 19:34:08 10° S 19:39:44 70° ESE 19:41:30 44° NE
Cosmos 1092 Rocket 4.2 19:35:53 10° SSE 19:41:52 48° E 19:42:26 46° ENE
Cosmos 1300 4.2 19:38:36 10° NNW 19:42:10 37° W 19:45:42 10° SSW
SL-19 R/B 4.3 19:37:28 10° SSE 19:43:41 81° ENE 19:49:29 10° NNW
Cosmos 1805 Rocket 4.4 19:50:54 10° SSW 19:55:12 50° W 19:57:26 26° NNW
SJ-6B 4.4 19:51:33 10° SSW 19:55:13 36° W 19:58:59 10° NNW
Cosmos 372 Rocket 3.9 19:55:23 10° NNW 20:00:29 80° WSW 20:01:25 59° S
FengYun 1-2 T 4.4 19:59:13 10° S 20:04:47 72° WSW 20:10:20 10° NNW
Milstar 3 3.4 20:10:28 10° W 20:16:58 55° SSW 20:19:01 44° SSE
USA 215 3.9 20:12:08 15° SSE 20:17:25 53° SW 20:23:48 10° NW
Resurs 01 Rocket 4.1 20:13:43 10° S 20:23:01 - NNW 20:14:20 14° S
OAO 3 Rocket 4.3 20:15:11 10° WNW 20:18:32 41° W 20:18:32 41° W
Atlas Centaur 2 3.7 20:19:08 10° W 20:21:13 20° SW 20:21:13 20° SW
Spot 2 Rocket 4.4 20:20:41 10° S 20:25:30 45° W 20:30:20 10° NNW
CZ-3A R/B 4.3 20:27:56 10° NNW 20:48:00 - SE 20:29:46 26° NNW
Cosmos 2278 Rocket 4.4 20:56:26 10° NW 21:00:32 21° W 21:04:38 10° SSW
